Regional Weather Roundup
Issued by NWS

Home | Current Version | Previous Version | Graphics & Text | Print | Product List | Glossary On
Versions: 1 2 3 4 5 6 7 8 9 10 11 12 13 14 15 16 17 18 19 20 21 22 23 24 25 26 27 28 29 30 31 32 33 34 35 36 37 38 39 40 41 42 43 44 45 46 47 48 49 50
000
ASUS43 KMKX 030521
RWRWI

WISCONSIN REGIONAL WEATHER ROUNDUP
NATIONAL WEATHER SERVICE MILWAUKEE/SULLIVAN WI
1100 PM CST MON MAR 02 2015

NOTE: "FAIR" INDICATES FEW OR NO CLOUDS BELOW 12,000 FEET WITH NO
SIGNIFICANT WEATHER AND/OR OBSTRUCTIONS TO VISIBILITY.

WIZ001-002-006>008-014>016-023>028-030600-
NORTHWEST WISCONSIN

CITY           SKY/WX    TMP DP  RH WIND       PRES   REMARKS
SUPERIOR ARPT  CLOUDY    22   6  49 SW8       30.06F WCI  13
ASHLAND        CLOUDY    22   4  46 S9        30.08F WCI  12
HAYWARD        CLOUDY    21   7  54 S13       30.06F WCI   9
SIREN          CLOUDY    22   7  53 S8        30.07F WCI  12
CUMBERLAND     CLOUDY    21   9  58 S10       30.07F WCI  10
RICE LAKE      CLOUDY    22   8  54 S9        30.10F WCI  12
CHETEK         CLOUDY    22   9  57 SE7       30.10F WCI  13
LADYSMITH      CLOUDY    22   8  55 SE5       30.10F WCI  16
EAU CLAIRE     CLOUDY    23   9  55 S9        30.11F WCI  13
MENOMONIE      CLOUDY    23  10  56 S8        30.12F WCI  14
NEW RICHMOND   CLOUDY    21  10  63 S8        30.09F WCI  11
OSCEOLA        CLOUDY    22  11  64 SE8       30.11F WCI  12
$$

WIZ003>005-009-010-017-018-030600-
NORTH CENTRAL WISCONSIN

CITY           SKY/WX    TMP DP  RH WIND       PRES   REMARKS
MANITOWISH WTR MOCLDY    16   2  54 S8        30.06F WCI   5
ARBOR VITAE    FAIR      19   5  54 S10       30.07F WCI   7
WOODRUFF       FAIR      19   5  54 S10       30.07F WCI   7
RHINELANDER    CLOUDY    20   3  48 S9        30.10F WCI   9
EAGLE RIVER    FAIR      17   0  47 S6        30.08F WCI   8
LAND O LAKES   FAIR      17   2  52 S6        30.07F WCI   8
PHILLIPS       CLOUDY    18   6  58 S6        30.08F WCI  10
TOMAHAWK       CLOUDY    19   5  56 CALM      30.11F
MEDFORD        CLOUDY    20   8  59 S5        30.10F WCI  13
MERRILL        CLOUDY    21   6  53 S3        30.12F
$$

WIZ029-030-035-036-043>047-030600-
CENTRAL WISCONSIN

CITY           SKY/WX    TMP DP  RH WIND       PRES   REMARKS
WAUSAU         CLOUDY    22   9  57 SE8       30.12F WCI  12
MOSINEE        CLOUDY    23  10  58 S6        30.14F WCI  16
MARSHFIELD     CLOUDY    23  10  57 S9        30.12F WCI  13
STEVENS POINT  CLOUDY    22  10  60 S8        30.16F WCI  13
WAUPACA        CLOUDY    26  13  56 S9        30.20F WCI  17
WAUTOMA        FAIR      25  12  57 S6        30.20F WCI  18
WISC RAPIDS    CLOUDY    24   9  52 S10       30.17F WCI  14
CAMP DOUGLAS   FAIR      24  15  69 S6        30.16F WCI  17
$$

WIZ011>013-019>022-031-037>040-048>050-030600-
NORTHEAST WISCONSIN

CITY           SKY/WX    TMP DP  RH WIND       PRES   REMARKS
ANTIGO         CLOUDY    18   8  65 S7        30.13F WCI   9
SHAWANO        CLOUDY    26  12  57 CALM      30.21F
OCONTO         MOCLDY    22  15  72 S3        30.22F
STURGEON BAY   FAIR      21  14  73 S7        30.24F WCI  13
GREEN BAY      CLOUDY    24  16  71 S6        30.23F WCI  17
MANITOWOC      CLOUDY    26  17  68 S8        30.24F WCI  18
APPLETON       CLOUDY    25  12  58 S10       30.21F WCI  15
CLINTONVILLE   CLOUDY    25  12  58 S7        30.20F WCI  17
OSHKOSH        CLOUDY    24  14  65 S10       30.21F WCI  14
$$

WIZ032>034-041-042-053>061-030600-
SOUTHWEST WISCONSIN

CITY           SKY/WX    TMP DP  RH WIND       PRES   REMARKS
LA CROSSE      CLOUDY    26  14  60 S9        30.15F WCI  17
SPARTA         CLOUDY    24  15  66 S6        30.16F WCI  17
VIROQUA        CLOUDY    22  15  75 SE8       30.13F WCI  13
BOSCOBEL       CLOUDY    26  16  65 VRB3      30.18F
PRAIRIE DU CHI CLOUDY    25  16  66 SE6       30.18F WCI  18
PLATTEVILLE    CLOUDY    24  18  77 SE10      30.16F WCI  13
$$

WIZ056-057-062-063-064-067-068-030600-
SOUTH CENTRAL WISCONSIN

CITY           SKY/WX    TMP DP  RH WIND       PRES   REMARKS
REEDSBURG      CLOUDY    23  14  68 S6        30.18F WCI  16
BARABOO/DELLS  FAIR      23  15  71 S6        30.18F WCI  15
LONE ROCK      CLOUDY    25  15  66 SE5       30.20F WCI  19
MINERAL POINT  CLOUDY    27  19  74 SE7       30.15F WCI  19
MADISON        CLOUDY    24  15  68 S8        30.20F WCI  15
MIDDLETON      CLOUDY    26  16  67 S8        30.20F WCI  17
WATERTOWN      CLOUDY    24  16  73 S6        30.21F WCI  17
MONROE         CLOUDY    23  19  86 SE6       30.18F WCI  16
JANESVILLE     CLOUDY    27  16  63 S7        30.21F WCI  19
$$

WIZ051-052-058>065-066-070>072-030600-
SOUTHEAST WISCONSIN

CITY           SKY/WX    TMP DP  RH WIND       PRES   REMARKS
MILWAUKEE      CLOUDY    26  17  68 S7        30.25F WCI  18
WAUKESHA       CLOUDY    23  14  68 S5        30.24F WCI  17
MILWAUKEE/TIMM CLOUDY    27  18  69 S5        30.25F WCI  21
RACINE         CLOUDY    26  16  65 SW8       30.27F WCI  18
BURLINGTON     CLOUDY    23  15  70 S5        30.23F WCI  17
KENOSHA        CLOUDY    26  17  68 S5        30.25F WCI  20
FOND DU LAC    CLOUDY    25  13  60 S9        30.22F WCI  15
SHEBOYGAN      CLOUDY    25  14  63 S10       30.23F WCI  15
WEST BEND      CLOUDY    25  14  63 S6        30.23F WCI  18
JUNEAU         CLOUDY    24  15  69 S7        30.22F WCI  16
$$

LSZ147-162-030600-
LAKE SUPERIOR

STATION/POSITION TIME  TEMP    WIND        PRES    WAVE
                       AIR SEA DIR/SP/G            HT/PER
                 (UTC) (F)     (DEG/KT/KT) (MB)    (FT/S)
DEVILS ISLAND    0500   21     190/  6/  9 1019.6F
PORT WING        0400   21     180/  7/ 13 1018.6F
SAXON HARBOR     0400   23     190/  8/ 12 1019.3F
$$

LMZ867-665-643>646-030600-
LAKE MICHIGAN

STATION/POSITION TIME  TEMP    WIND        PRES    WAVE
                       AIR SEA DIR/SP/G            HT/PER
                 (UTC) (F)     (DEG/KT/KT) (MB)    (FT/S)
NORTHPORT PIER   0502   21     190/  3/  9 1023.7F
SISTER BAY       0413   21     210/ 11/ 12   N/A
KEWAUNEE LAKESHO 0500                      1023.0F
SHEBOYGAN LAKESH 0500   26     200/ 13/ 15 1025.3F
PORT WASHINGTON  0400   26     210/  6/  7 1025.7F
MILWAUKEE LAKESH 0500   26     200/  9/ 10   N/A
KENOSHA   LAKESH 0500   27     190/  4/  8 1024.4F
$$

TC  - TEMPERATURE IN CELSIUS
VSB - VISIBILITY IN STATUTE MILES
WCI - WIND CHILL INDEX
HX  - HEAT INDEX




USA.gov is the U.S. government's official web portal to all federal, state and local government web resources and services.